sat.trackr.live / text

‹ back to catalog

STARLINK-37783

NORAD 69438 · 2026-126U

PAYLOAD ACTIVE UNKNOWN

§ Identity

Operator
Country
US
Launch date
2026-06-07
Launch site
AFWTR
Launch vehicle
Mass (kg)
RCS (m²)

Purposes: comms

External: N2YO · Heavens-Above · Gunter

§ Orbital elements

Epoch: 2026-09-19T09:12:30.714912Z

Period
93.91 min
Inclination
97.2845°
Eccentricity
0.0002499
Mean motion
15.33441100 rev/d
Perigee alt
463.8 km
Apogee alt
467.3 km
Semi-major
6,843.7 km
B*
4.8926e-4
RAAN
123.6406°
Arg perigee
87.7233°
Mean anomaly
272.4295°
Rev number
1,740

§ Raw data

STARLINK-377831 69438U 26126U   26262.38368883  .00015752  00000+0  48926-3 0  99932 69438  97.2845 123.6406 0002499  87.7233 272.4295 15.33441100 17408

JSON: /api/v1/satellites/69438 · /tle

For live sub-satellite position, see the globe view (requires WebGL).

§ Visibility from observer

Set your observer location to see the next 7 days of passes ≥ 10°. The values pass through the URL so the page stays shareable.

No JS? Fill the form by hand. The geolocation button needs JavaScript.